Location: Buttermere
(51.3333°N, 1.5167°W)
Time: 12:47:09
(UTC+00:00)

Cosmos 1844 - Pass Details

Date: 18 September 2020
Orbit: 824 x 866 km, 70.9° (Epoch: 25 October)

Event Time Altitude Azimuth Distance (km) Brightness Sun altitude
Rises 21:10:12 0° 216° (SW) 3,412 6.8 -26.2°
Reaches altitude 10° 21:12:40 10° 219° (SW) 2,474 6.1 -26.5°
Maximum altitude 21:18:20 70° 303° (WNW) 900 3.9 -27.1°
Drops below altitude 10° 21:23:58 10° 27° (NNE) 2,460 6.3 -27.8°
Sets 21:26:26 0° 30° (NNE) 3,392 7.0 -28.1°
